GW2042 Weather Reports


Display with metric or nautical units.
time (UTC)temp
F
wind
direction
speed
MPH
gust
MPH
rain 1hr
in
rain 24hr
in
rain mn
in
humidity
%
barometer
mb
20260506091534 55 330 2.0 8.0 0.00 0.00 0.00 83 1011.1
20260506091018 55 51 2.0 9.0 0.00 0.00 0.00 83 1011.0
20260506090515 55 341 2.0 9.0 0.00 0.00 0.00 83 1011.0
20260506090043 55 298 3.0 9.0 0.00 0.00 0.00 83 1011.0
20260506085517 55 313 2.0 9.0 0.00 0.00 0.00 83 1011.1
20260506085015 55 325 3.0 9.0 0.00 0.00 0.00 83 1011.2
20260506084534 55 0 2.0 9.0 0.00 0.00 0.00 83 1011.1
20260506084015 55 333 2.0 8.0 0.00 0.00 0.00 83 1011.2
20260506083516 55 321 1.0 8.0 0.00 0.00 0.00 83 1011.1
20260506083032 56 19 2.0 6.0 0.00 0.00 0.00 83 1011.1
20260506082514 56 321 2.0 9.0 0.00 0.00 0.00 83 1011.1
20260506082017 56 321 3.0 9.0 0.00 0.00 0.00 82 1011.1
20260506081537 56 321 2.0 7.0 0.00 0.00 0.00 82 1011.0
20260506081015 56 333 2.0 5.0 0.00 0.00 0.00 82 1011.1
20260506080516 56 332 2.0 6.0 0.00 0.00 0.00 82 1011.0
20260506073515 56 355 3.0 9.0 0.00 0.00 0.00 83 1011.0
20260506073031 56 360 2.0 8.0 0.00 0.00 0.00 84 1010.8
20260506072516 56 338 3.0 6.0 0.00 0.00 0.00 84 1010.8
20260506072015 56 327 2.0 5.0 0.00 0.00 0.00 84 1010.9
20260506071530 56 360 2.0 8.0 0.00 0.00 0.00 84 1010.9
20260506071015 56 310 2.0 8.0 0.00 0.00 0.00 84 1010.8
20260506070515 56 336 3.0 8.0 0.00 0.00 0.00 84 1011.0
20260506062515 57 339 0.0 4.0 0.00 0.00 0.00 82 1010.1
20260506062016 57 16 1.0 4.0 0.00 0.00 0.00 82 1010.2
20260506061546 57 0 1.0 4.0 0.00 0.00 0.00 82 1010.1
20260506061015 57 0 0.0 4.0 0.00 0.00 0.00 81 1010.1
20260506060519 57 355 1.0 4.0 0.00 0.00 0.00 81 1010.1
20260506051016 60 325 2.0 9.0 0.00 0.00 0.00 78 1010.6
20260506050529 60 345 2.0 8.0 0.00 0.00 0.00 78 1010.6
20260506045016 60 347 1.0 8.0 0.00 0.00 0.00 77 1010.5
20260506044539 61 360 2.0 8.0 0.00 0.00 0.00 77 1010.6
20260506044015 61 342 1.0 9.0 0.00 0.00 0.00 76 1010.5
20260506043515 61 5 2.0 9.0 0.00 0.00 0.00 77 1010.4
20260506043039 62 337 2.0 7.0 0.00 0.00 0.00 77 1010.4
20260506042515 62 348 2.0 8.0 0.00 0.00 0.00 77 1010.5
20260506042015 62 325 1.0 8.0 0.00 0.00 0.00 76 1010.4
20260506041535 62 5 1.0 10.0 0.00 0.00 0.00 75 1010.3
20260506041014 63 102 3.0 10.0 0.00 0.00 0.00 75 1010.4
20260506040515 63 126 2.0 7.0 0.00 0.00 0.00 75 1010.2
20260506040033 63 11 1.0 6.0 0.00 0.00 0.00 75 1010.1
20260506035518 64 76 1.0 6.0 0.00 0.00 0.00 74 1010.2
20260506035017 64 28 1.0 8.0 0.00 0.00 0.00 74 1010.1
20260506034530 64 314 2.0 8.0 0.00 0.00 0.00 73 1010.0
20260506034016 64 0 1.0 9.0 0.00 0.00 0.00 73 1010.1
20260506033515 64 341 3.0 9.0 0.00 0.00 0.00 73 1010.2
20260506033029 65 111 1.0 5.0 0.00 0.00 0.00 73 1010.2
20260506032515 65 350 3.0 9.0 0.00 0.00 0.00 73 1010.1
20260506032016 65 332 2.0 9.0 0.00 0.00 0.00 73 1010.1
20260506031544 65 346 3.0 9.0 0.00 0.00 0.00 73 1009.9
20260506031015 65 343 2.0 6.0 0.00 0.00 0.00 73 1009.7
20260506030515 66 0 1.0 8.0 0.00 0.00 0.00 73 1009.7
20260506030032 66 11 2.0 8.0 0.00 0.00 0.00 72 1009.4
20260506025519 66 324 0.0 5.0 0.00 0.00 0.00 72 1009.1
20260506025015 66 345 1.0 5.0 0.00 0.00 0.00 71 1009.0
20260506024541 66 0 1.0 4.0 0.00 0.00 0.00 71 1009.0
20260506024015 66 355 0.0 4.0 0.00 0.00 0.00 70 1008.9
20260506023517 67 19 1.0 5.0 0.00 0.00 0.00 70 1008.6
20260506023030 67 355 2.0 5.0 0.00 0.00 0.00 69 1008.5
20260506022518 67 109 1.0 5.0 0.00 0.00 0.00 69 1008.6
20260506022015 67 0 0.0 6.0 0.00 0.00 0.00 69 1008.5
20260506021533 68 0 1.0 6.0 0.00 0.00 0.00 68 1008.3
20260506021017 68 342 1.0 7.0 0.00 0.00 0.00 67 1008.1
20260506020514 68 40 1.0 7.0 0.00 0.00 0.00 67 1008.0
20260506020032 68 295 2.0 7.0 0.00 0.00 0.00 67 1007.8
20260506015515 69 330 2.0 10.0 0.00 0.00 0.00 67 1007.7
20260506015019 69 274 2.0 10.0 0.00 0.00 0.00 67 1007.7
20260506014532 69 347 2.0 10.0 0.00 0.00 0.00 67 1007.6
20260506014017 70 336 2.0 9.0 0.00 0.00 0.00 67 1007.6
20260506013515 70 66 2.0 8.0 0.00 0.00 0.00 68 1007.3
20260506013029 70 21 1.0 8.0 0.00 0.00 0.00 68 1007.2
20260506012515 71 355 1.0 6.0 0.00 0.00 0.00 67 1006.8
20260506012018 72 343 2.0 10.0 0.00 0.00 0.00 67 1006.7
20260506011535 72 59 2.0 10.0 0.00 0.00 0.00 66 1006.8
20260506011015 73 5 2.0 8.0 0.00 0.00 0.00 65 1006.7
20260506010515 73 5 2.0 10.0 0.00 0.00 0.00 65 1006.5
20260506010034 74 5 2.0 10.0 0.00 0.00 0.00 64 1006.4
20260506005513 74 324 2.0 8.0 0.00 0.00 0.00 63 1006.6
20260506005014 75 345 2.0 10.0 0.00 0.00 0.00 63 1006.5
20260506004534 75 49 3.0 10.0 0.00 0.00 0.00 62 1006.3
20260506004015 76 26 2.0 8.0 0.00 0.00 0.00 62 1006.3
20260506003515 76 20 1.0 12.0 0.00 0.00 0.00 61 1006.0
20260506003030 77 296 3.0 12.0 0.00 0.00 0.00 59 1006.3
20260506002515 79 325 3.0 12.0 0.00 0.00 0.00 59 1006.3
20260506002014 80 24 3.0 10.0 0.00 0.00 0.00 59 1006.3
20260506001536 80 59 1.0 10.0 0.00 0.00 0.00 59 1005.8
20260506001015 81 29 3.0 9.0 0.00 0.00 0.00 58 1005.7
20260506000514 81 75 1.0 13.0 0.00 0.00 0.00 57 1005.7
20260506000035 82 93 3.0 13.0 0.00 0.00 0.00 56 1005.7
20260505235515 82 52 2.0 11.0 0.00 0.00 0.00 54 1005.8
20260505235015 84 360 2.0 12.0 0.00 0.00 0.00 51 1005.8
20260505234532 87 39 4.0 12.0 0.00 0.00 0.00 47 1005.9
20260505234018 88 336 2.0 8.0 0.00 0.00 0.00 48 1005.8
20260505233515 88 263 3.0 9.0 0.00 0.00 0.00 45 1005.7
20260505233030 88 229 4.0 10.0 0.00 0.00 0.00 45 1005.5
20260505232517 89 222 3.0 10.0 0.00 0.00 0.00 45 1005.4
20260505232020 88 206 3.0 9.0 0.00 0.00 0.00 47 1005.3
20260505231534 88 198 3.0 9.0 0.00 0.00 0.00 46 1005.2
20260505231027 89 207 3.0 9.0 0.00 0.00 0.00 45 1005.1
20260505230514 88 182 2.0 6.0 0.00 0.00 0.00 48 1005.1
20260505230035 88 0 2.0 6.0 0.00 0.00 0.00 46 1005.1
20260505225515 89 200 2.0 7.0 0.00 0.00 0.00 46 1005.1
20260505225015 89 0 1.0 7.0 0.00 0.00 0.00 46 1005.1
20260505224532 90 176 2.0 8.0 0.00 0.00 0.00 43 1005.2
20260505224014 90 192 3.0 8.0 0.00 0.00 0.00 44 1005.2
20260505223517 90 240 4.0 8.0 0.00 0.00 0.00 42 1005.2
20260505223035 90 173 3.0 8.0 0.00 0.00 0.00 44 1005.2
20260505222514 89 261 4.0 10.0 0.00 0.00 0.00 45 1005.1
20260505222016 90 147 3.0 10.0 0.00 0.00 0.00 44 1005.2
20260505221530 89 215 4.0 10.0 0.00 0.00 0.00 45 1005.2
20260505221015 89 160 2.0 7.0 0.00 0.00 0.00 45 1005.2
20260505220514 89 201 3.0 8.0 0.00 0.00 0.00 46 1005.2
20260505220031 89 206 3.0 10.0 0.00 0.00 0.00 45 1005.3
20260505215515 90 270 4.0 10.0 0.00 0.00 0.00 43 1005.3
20260505215015 90 213 3.0 8.0 0.00 0.00 0.00 43 1005.2
20260505214544 90 223 3.0 8.0 0.00 0.00 0.00 44 1005.3
20260505214015 90 235 2.0 9.0 0.00 0.00 0.00 43 1005.2
20260505213518 89 219 4.0 9.0 0.00 0.00 0.00 45 1005.2
20260505213030 89 239 4.0 9.0 0.00 0.00 0.00 44 1005.2
20260505212515 89 221 4.0 8.0 0.00 0.00 0.00 45 1005.4
20260505212016 89 225 2.0 8.0 0.00 0.00 0.00 48 1005.4
20260505211530 89 250 2.0 8.0 0.00 0.00 0.00 47 1005.4
20260505211016 89 223 3.0 7.0 0.00 0.00 0.00 46 1005.5
20260505210515 89 195 2.0 10.0 0.00 0.00 0.00 44 1005.5
20260505210030 90 229 5.0 10.0 0.00 0.00 0.00 45 1005.6
20260505205514 91 220 2.0 9.0 0.00 0.00 0.00 43 1005.6
20260505205017 90 203 2.0 7.0 0.00 0.00 0.00 46 1005.6
20260505204533 89 300 2.0 11.0 0.00 0.00 0.00 40 1005.5
20260505204014 90 228 5.0 11.0 0.00 0.00 0.00 42 1005.7
20260505203518 89 235 4.0 8.0 0.00 0.00 0.00 44 1005.8
20260505203030 89 342 3.0 7.0 0.00 0.00 0.00 40 1005.9
20260505202515 90 151 2.0 11.0 0.00 0.00 0.00 43 1006.0
20260505202015 90 257 4.0 11.0 0.00 0.00 0.00 41 1006.0
20260505201530 89 211 5.0 11.0 0.00 0.00 0.00 45 1006.0
20260505201015 90 288 6.0 11.0 0.00 0.00 0.00 42 1005.9
20260505200516 90 240 5.0 11.0 0.00 0.00 0.00 42 1005.9
20260505200041 90 267 5.0 14.0 0.00 0.00 0.00 42 1005.9
20260505195516 89 286 3.0 14.0 0.00 0.00 0.00 45 1005.9
20260505195015 89 213 5.0 12.0 0.00 0.00 0.00 47 1006.1
20260505194532 89 257 5.0 12.0 0.00 0.00 0.00 48 1006.1
20260505194019 89 196 6.0 13.0 0.00 0.00 0.00 48 1006.1
20260505193518 88 233 8.0 13.0 0.00 0.00 0.00 48 1006.3
20260505193035 87 182 6.0 12.0 0.00 0.00 0.00 48 1006.3
20260505192519 88 211 5.0 15.0 0.00 0.00 0.00 49 1006.4
20260505192019 88 223 6.0 15.0 0.00 0.00 0.00 50 1006.2
20260505191531 87 216 6.0 15.0 0.00 0.00 0.00 51 1006.4
20260505191021 87 222 5.0 16.0 0.00 0.00 0.00 52 1006.5
20260505190515 88 205 10.0 16.0 0.00 0.00 0.00 49 1006.6
20260505190032 88 226 5.0 16.0 0.00 0.00 0.00 52 1006.6
20260505185519 87 242 7.0 16.0 0.00 0.00 0.00 50 1006.7
20260505185022 87 245 7.0 16.0 0.00 0.00 0.00 51 1006.7
20260505184533 86 240 9.0 16.0 0.00 0.00 0.00 51 1006.8
20260505184015 86 242 9.0 15.0 0.00 0.00 0.00 53 1006.9
20260505183516 86 234 9.0 15.0 0.00 0.00 0.00 54 1007.1
20260505183046 85 244 6.0 17.0 0.00 0.00 0.00 56 1006.9
20260505182517 85 228 10.0 17.0 0.00 0.00 0.00 55 1007.0
20260505182017 85 217 8.0 16.0 0.00 0.00 0.00 55 1007.0
20260505181532 85 203 6.0 17.0 0.00 0.00 0.00 57 1007.1
20260505181017 85 254 8.0 17.0 0.00 0.00 0.00 54 1007.0
20260505180517 85 199 7.0 17.0 0.00 0.00 0.00 58 1007.1
20260505180038 85 248 6.0 13.0 0.00 0.00 0.00 59 1007.1
20260505175516 84 241 8.0 13.0 0.00 0.00 0.00 59 1007.2
20260505175016 84 290 7.0 13.0 0.00 0.00 0.00 60 1007.1
20260505174531 83 242 6.0 16.0 0.00 0.00 0.00 60 1007.1
20260505174016 83 240 8.0 16.0 0.00 0.00 0.00 58 1007.1
20260505173519 84 231 5.0 15.0 0.00 0.00 0.00 63 1007.1
20260505173029 83 212 7.0 15.0 0.00 0.00 0.00 61 1007.1
20260505172515 83 204 7.0 15.0 0.00 0.00 0.00 62 1007.2
20260505172015 83 238 4.0 12.0 0.00 0.00 0.00 64 1007.2
20260505171532 82 199 6.0 12.0 0.00 0.00 0.00 65 1007.1
20260505171016 81 178 5.0 14.0 0.00 0.00 0.00 65 1007.2
20260505170515 80 223 5.0 14.0 0.00 0.00 0.00 67 1007.2
20260505170030 79 232 9.0 14.0 0.00 0.00 0.00 67 1007.2
20260505165514 79 248 7.0 13.0 0.00 0.00 0.00 67 1007.2
20260505165014 79 204 5.0 13.0 0.00 0.00 0.00 68 1007.2
20260505164529 79 167 6.0 13.0 0.00 0.00 0.00 68 1007.2
20260505164017 79 159 5.0 12.0 0.00 0.00 0.00 69 1007.2
20260505163517 79 220 5.0 12.0 0.00 0.00 0.00 68 1007.2
20260505163032 78 186 6.0 13.0 0.00 0.00 0.00 68 1007.1
20260505162517 78 188 6.0 15.0 0.00 0.00 0.00 69 1007.1
20260505162018 78 185 6.0 15.0 0.00 0.00 0.00 70 1007.2
20260505161530 78 193 7.0 14.0 0.00 0.00 0.00 69 1007.2
20260505161017 78 221 7.0 14.0 0.00 0.00 0.00 70 1007.0
20260505160518 78 174 6.0 15.0 0.00 0.00 0.00 71 1007.0
20260505153030 76 212 7.0 16.0 0.00 0.00 0.00 74 1006.7
20260505152518 76 236 7.0 13.0 0.00 0.00 0.00 73 1006.8
20260505152017 76 217 5.0 15.0 0.00 0.00 0.00 75 1006.8
20260505151535 75 211 7.0 15.0 0.00 0.00 0.00 75 1006.8
20260505151017 75 246 8.0 16.0 0.00 0.00 0.00 75 1006.8
20260505150525 74 236 8.0 16.0 0.00 0.00 0.00 76 1006.8
20260505140518 71 208 6.0 16.0 0.00 0.00 0.00 81 1006.5
20260505125018 67 182 4.0 13.0 0.00 0.00 0.00 87 1006.1
20260505124537 67 169 5.0 13.0 0.00 0.00 0.00 87 1006.1
20260505124017 66 207 3.0 9.0 0.00 0.00 0.00 88 1006.1
20260505123524 66 189 3.0 9.0 0.00 0.00 0.00 88 1006.0
20260505123031 66 215 4.0 12.0 0.00 0.00 0.00 88 1005.9
20260505122520 66 188 3.0 12.0 0.00 0.00 0.00 88 1005.8
20260505122015 66 196 3.0 9.0 0.00 0.00 0.00 88 1005.8
20260505121537 66 200 4.0 11.0 0.00 0.00 0.00 88 1005.9
20260505121018 66 182 4.0 11.0 0.00 0.00 0.00 88 1005.8
20260505120520 65 221 3.0 9.0 0.00 0.00 0.00 88 1005.7
20260505120043 65 199 3.0 10.0 0.00 0.00 0.00 88 1005.7
20260505115521 65 203 3.0 10.0 0.00 0.00 0.00 88 1005.6
20260505115018 66 186 3.0 10.0 0.00 0.00 0.00 88 1005.6
20260505114537 66 194 3.0 9.0 0.00 0.00 0.00 87 1005.7
20260505114014 66 202 3.0 12.0 0.00 0.00 0.00 87 1005.7
20260505113517 66 180 3.0 12.0 0.00 0.00 0.00 87 1005.7
20260505113034 66 189 2.0 12.0 0.00 0.00 0.00 87 1005.5
20260505112517 66 214 4.0 12.0 0.00 0.00 0.00 87 1005.5
20260505112014 66 193 3.0 11.0 0.00 0.00 0.00 87 1005.4
20260505111533 66 221 4.0 11.0 0.00 0.00 0.00 86 1005.5
20260505111018 66 207 4.0 11.0 0.00 0.00 0.00 86 1005.4
20260505110518 66 196 4.0 12.0 0.00 0.00 0.00 86 1005.4
20260505102016 67 202 4.0 12.0 0.00 0.00 0.00 84 1005.5
20260505101545 67 221 5.0 12.0 0.00 0.00 0.00 84 1005.5
20260505101017 67 196 4.0 12.0 0.00 0.00 0.00 84 1005.6
20260505100517 67 164 4.0 12.0 0.00 0.00 0.00 84 1005.4
20260505100037 67 151 4.0 12.0 0.00 0.00 0.00 84 1005.5
20260505095515 67 216 4.0 11.0 0.00 0.00 0.00 84 1005.4
20260505095015 67 162 4.0 10.0 0.00 0.00 0.00 84 1005.5
20260505094537 67 184 4.0 12.0 0.00 0.00 0.00 84 1005.5
20260505094015 67 222 4.0 12.0 0.00 0.00 0.00 84 1005.6
20260505093515 67 156 4.0 11.0 0.00 0.00 0.00 83 1005.8
20260505093033 67 200 4.0 11.0 0.00 0.00 0.00 83 1005.7
20260505092518 67 169 4.0 11.0 0.00 0.00 0.00 83 1005.6
20260505092016 67 188 4.0 10.0 0.00 0.00 0.00 83 1005.6